Starlink 5680

operational
NORAD ID: 55455 Int'l Des: 2023-015 Owner: SPXS Country: US Constellation: starlink
LEOCIRCULAR

关于 Starlink 5680

正在加载描述...

实时位置

正在加载3D地球...

即将过境

高度历史

Altitude vs Time

uPlot chart will show altitude changes over time

两行轨道根数

1 55455U 23015G 25303.02105438 -.00000391 00000-0 -13895-4 0 9996
2 55455 43.0046 316.3875 0001330 270.3059 89.7631 15.02531472151099
Epoch: Oct 30, 2025 • Age: 31 hours

当前状态

高度 559.2 km
速度 7.58 km/s
星下点 -1.74°S, 23.09°W
发射日期 Feb 2, 2023
运行时间 2.7 years
类型 internet

技术详情

分类 Payload
质量 305.00 kg
干质量 290.00 kg
总质量 305.00 kg
长度 0.20 m
直径 2.80 m
跨度 9.00 m
形状 Box + pan
制造商 SPXS
平台类型 Starlink
阶段状态 In Orbit
所有者/国家 SPXS/US

大型星座

Loading constellations...